contact:dominique.lefevre@mio.osupytheas.fr, maurice.libes@osupytheas.fr
Project:EMSO Ligure-ouest http://www.emso-fr.org/EMSO-France
Sensor Aquadopp, line 13 Serial AQD14315 
DOI : "https://doi.org/10.17882/74513; https://doi.org/10.17882/83244" 
Title:EMSO Ligure Ouest : Data ligne ALBATROSS capteur AQUADOPP - deploiement 2021
Id,Date,Profondeur,Latitude,Longitude,X_East,Y_North,Z_Up,Amplitude_X,Amplitude_Y,Amplitude_Z,Batterie,SoundSpeed,Heading,Pitch,Roll,Pressure,Temperature,Speed,Direction
, , m, degrees North, degrees East, m.s-1, m.s-1,m.s-1, 1, 1, 1, Volt, m.s-1, degree, degree, degree, dbar, degree_C, m.s-1, degree
09,2021-12-17T21:30:00,2000.0,42.79,6.0312,0.033,0.047,-0.009,68.0,62.0,68.0,12.4,1504.7,34.1,-0.6,0.9,1990.616,13.28,0.057,35.1
09,2021-12-17T22:00:00,2000.0,42.79,6.0312,0.011,0.05,-0.009,65.0,66.0,66.0,12.4,1504.7,28.5,-0.6,1.0,1990.681,13.28,0.051,12.4
09,2021-12-17T22:30:00,2000.0,42.79,6.0312,0.025,0.053,0.006,66.0,63.0,65.0,12.4,1504.7,27.0,-0.8,1.0,1990.601,13.28,0.058,25.3
09,2021-12-17T23:00:00,2000.0,42.79,6.0312,0.023,0.035,-0.013,69.0,60.0,65.0,12.4,1504.7,21.7,-0.9,0.8,1990.581,13.28,0.041,33.3
09,2021-12-18T00:00:00,2000.0,42.79,6.0312,0.018,0.038,-0.015,66.0,64.0,69.0,12.4,1504.7,24.4,-1.0,1.0,1990.589,13.28,0.042,25.3
09,2021-12-18T00:30:00,2000.0,42.79,6.0312,0.022,0.052,-0.007,66.0,63.0,65.0,12.5,1504.7,15.5,-0.5,1.0,1990.565,13.28,0.056,22.9
09,2021-12-18T01:00:00,2000.0,42.79,6.0312,-0.006,0.055,0.003,66.0,62.0,66.0,12.4,1504.7,2.4,-1.0,0.9,1990.556,13.28,0.055,353.8
09,2021-12-18T01:30:00,2000.0,42.79,6.0312,0.007,0.055,-0.033,67.0,63.0,65.0,12.4,1504.7,4.9,-1.0,0.9,1990.528,13.28,0.055,7.3
09,2021-12-18T02:00:00,2000.0,42.79,6.0312,0.009,0.067,-0.017,66.0,63.0,65.0,12.4,1504.7,6.4,-0.7,1.1,1990.582,13.28,0.067,7.7
09,2021-12-18T02:30:00,2000.0,42.79,6.0312,0.03,0.064,-0.025,65.0,64.0,65.0,12.4,1504.7,9.9,-1.0,1.0,1990.617,13.28,0.07,25.1
09,2021-12-18T03:00:00,2000.0,42.79,6.0312,0.016,0.042,0.014,65.0,63.0,66.0,12.4,1504.7,2.9,-1.3,0.9,1990.622,13.28,0.044,20.9
09,2021-12-18T03:30:00,2000.0,42.79,6.0312,0.025,0.057,0.015,67.0,63.0,65.0,12.4,1504.7,10.9,-1.2,1.0,1990.658,13.28,0.062,23.7
09,2021-12-18T04:00:00,2000.0,42.79,6.0312,0.015,0.044,-0.005,64.0,62.0,66.0,12.4,1504.7,2.2,-1.0,0.9,1990.702,13.28,0.046,18.8
09,2021-12-18T04:30:00,2000.0,42.79,6.0312,0.022,0.053,-0.029,66.0,63.0,66.0,12.4,1504.7,11.6,-1.2,0.8,1990.703,13.28,0.057,22.5
09,2021-12-18T05:00:00,2000.0,42.79,6.0312,0.023,0.046,0.04,65.0,61.0,65.0,12.4,1504.7,10.2,-1.1,1.2,1990.716,13.28,0.051,26.6
09,2021-12-18T05:30:00,2000.0,42.79,6.0312,0.022,0.069,0.014,67.0,61.0,66.0,12.4,1504.7,5.1,-0.9,1.1,1990.752,13.28,0.072,17.7
09,2021-12-18T06:00:00,2000.0,42.79,6.0312,0.013,0.048,-0.022,66.0,62.0,66.0,12.4,1504.7,15.1,-1.0,1.2,1990.765,13.28,0.049,15.2
09,2021-12-18T06:30:00,2000.0,42.79,6.0312,0.019,0.055,-0.015,67.0,62.0,65.0,12.4,1504.7,16.3,-1.1,1.1,1990.765,13.28,0.058,19.1
09,2021-12-18T07:00:00,2000.0,42.79,6.0312,0.022,0.036,-0.006,66.0,65.0,65.0,12.4,1504.7,11.3,-1.4,0.9,1990.748,13.28,0.042,31.4
09,2021-12-18T07:30:00,2000.0,42.79,6.0312,0.012,0.049,-0.001,65.0,62.0,65.0,12.4,1504.7,14.8,-1.3,0.9,1990.795,13.28,0.05,13.8
09,2021-12-18T08:00:00,2000.0,42.79,6.0312,0.011,0.057,-0.033,66.0,63.0,66.0,12.4,1504.7,20.9,-0.9,1.0,1990.77,13.28,0.058,10.9
09,2021-12-18T08:30:00,2000.0,42.79,6.0312,0.01,0.064,0.0,65.0,63.0,66.0,12.4,1504.7,10.5,-1.0,1.0,1990.792,13.28,0.064,8.9
09,2021-12-18T09:00:00,2000.0,42.79,6.0312,0.0,0.054,-0.015,66.0,62.0,65.0,12.4,1504.7,354.2,-1.1,1.1,1990.79,13.28,0.053,0.0
09,2021-12-18T09:30:00,2000.0,42.79,6.0312,0.026,0.074,-0.013,68.0,62.0,66.0,12.4,1504.7,12.4,-0.9,0.9,1990.726,13.28,0.078,19.4
09,2021-12-18T10:00:00,2000.0,42.79,6.0312,0.033,0.057,-0.028,67.0,63.0,67.0,12.4,1504.7,16.5,-1.0,0.9,1990.73,13.28,0.065,30.1
09,2021-12-18T10:30:00,2000.0,42.79,6.0312,0.019,0.059,-0.011,66.0,62.0,66.0,12.4,1504.7,5.1,-0.9,1.1,1990.761,13.28,0.061,17.8
09,2021-12-18T11:00:00,2000.0,42.79,6.0312,0.006,0.057,0.021,67.0,63.0,64.0,12.4,1504.7,359.1,-1.0,0.9,1990.69,13.28,0.057,6.0
09,2021-12-18T11:30:00,2000.0,42.79,6.0312,0.015,0.065,-0.005,66.0,62.0,64.0,12.4,1504.7,4.2,-1.0,1.0,1990.686,13.28,0.066,13.0
09,2021-12-18T12:00:00,2000.0,42.79,6.0312,0.017,0.072,-0.008,65.0,62.0,68.0,12.4,1504.7,4.1,-1.1,1.0,1990.679,13.28,0.073,13.3
09,2021-12-18T12:30:00,2000.0,42.79,6.0312,0.001,0.072,-0.013,66.0,62.0,66.0,12.4,1504.7,355.8,-0.7,1.1,1990.634,13.28,0.072,0.8
09,2021-12-18T13:00:00,2000.0,42.79,6.0312,0.02,0.061,0.009,67.0,64.0,67.0,12.4,1504.7,12.5,-1.1,1.1,1990.65,13.28,0.064,18.1
09,2021-12-18T13:30:00,2000.0,42.79,6.0312,0.022,0.042,-0.034,65.0,61.0,64.0,12.4,1504.7,10.7,-0.8,1.1,1990.626,13.28,0.047,27.6
09,2021-12-18T14:00:00,2000.0,42.79,6.0312,0.036,0.084,0.01,67.0,61.0,64.0,12.4,1504.7,8.4,-1.0,1.1,1990.619,13.28,0.091,23.2
09,2021-12-18T14:30:00,2000.0,42.79,6.0312,0.009,0.063,0.014,67.0,64.0,65.0,12.4,1504.7,358.2,-1.0,0.9,1990.601,13.28,0.063,8.1
09,2021-12-18T15:00:00,2000.0,42.79,6.0312,0.017,0.064,-0.004,64.0,61.0,63.0,12.4,1504.7,2.4,-1.2,0.9,1990.607,13.28,0.066,14.9
09,2021-12-18T15:30:00,2000.0,42.79,6.0312,0.006,0.048,-0.003,68.0,61.0,65.0,12.4,1504.7,357.7,-0.9,1.1,1990.651,13.28,0.048,7.1
09,2021-12-18T16:00:00,2000.0,42.79,6.0312,0.008,0.067,0.0,65.0,61.0,66.0,12.4,1504.7,352.5,-1.0,1.0,1990.683,13.28,0.067,6.8
09,2021-12-18T16:30:00,2000.0,42.79,6.0312,0.021,0.07,0.001,65.0,63.0,65.0,12.4,1504.7,10.5,-0.9,1.1,1990.717,13.28,0.073,16.7
09,2021-12-18T17:00:00,2000.0,42.79,6.0312,0.03,0.057,-0.006,67.0,62.0,68.0,12.4,1504.7,1.7,-0.8,1.0,1990.682,13.28,0.064,27.8
09,2021-12-18T17:30:00,2000.0,42.79,6.0312,0.026,0.059,0.005,67.0,64.0,69.0,12.4,1504.7,1.8,-1.0,1.0,1990.749,13.28,0.064,23.8
09,2021-12-18T18:00:00,2000.0,42.79,6.0312,0.029,0.059,-0.015,70.0,65.0,68.0,12.4,1504.7,5.8,-1.1,1.0,1990.728,13.28,0.065,26.2
09,2021-12-18T18:30:00,2000.0,42.79,6.0312,0.02,0.073,-0.001,67.0,64.0,65.0,12.4,1504.7,5.6,-1.1,1.0,1990.743,13.28,0.075,15.3
09,2021-12-18T19:00:00,2000.0,42.79,6.0312,0.034,0.072,0.006,68.0,63.0,65.0,12.4,1504.7,359.4,-1.1,1.0,1990.76,13.28,0.079,25.3
09,2021-12-18T19:30:00,2000.0,42.79,6.0312,0.019,0.064,0.003,69.0,64.0,67.0,12.4,1504.7,0.6,-1.4,0.8,1990.728,13.28,0.066,16.5
09,2021-12-18T20:00:00,2000.0,42.79,6.0312,0.02,0.058,0.009,67.0,65.0,66.0,12.4,1504.7,6.2,-1.2,0.8,1990.744,13.28,0.061,19.0
09,2021-12-18T20:30:00,2000.0,42.79,6.0312,-0.002,0.057,0.001,67.0,64.0,66.0,12.4,1504.7,356.8,-1.1,0.9,1990.706,13.28,0.057,358.0
09,2021-12-18T21:00:00,2000.0,42.79,6.0312,0.016,0.061,-0.011,67.0,63.0,67.0,12.4,1504.7,353.8,-1.3,0.9,1990.652,13.28,0.063,14.7
